CAL82 VVTS-VVPB

Flight info

Callsign CAL82
Flight time 1h 0m
Altitude 31000
Route PATMA Q2 LATOM
Aircraft B738/M-L/L

Departure

Time 2026-05-05 04:20
Airport Tan Son Nhat International Airport (VVTS)

Arrival

Time 2026-05-05 05:20
Airport Phu Bai International Airport (VVPB)
Time Latitude Longitude Altitude Speed Heading
2026-05-05 04:19 10.80228 106.52454 3956 ft 264 kts 325°
2026-05-05 04:20 10.81836 106.51613 4678 ft 263 kts 341°
2026-05-05 04:20 10.83556 106.50969 5357 ft 268 kts 342°
2026-05-05 04:20 10.85304 106.50319 6037 ft 271 kts 341°
2026-05-05 04:20 10.87072 106.49649 6813 ft 272 kts 343°
2026-05-05 04:21 10.88921 106.49234 7405 ft 276 kts 359°
2026-05-05 04:21 10.90759 106.49470 8212 ft 270 kts 23°
2026-05-05 04:21 10.92346 106.50503 8854 ft 272 kts 47°
2026-05-05 04:21 10.93534 106.51976 9594 ft 274 kts 48°
2026-05-05 04:22 10.94996 106.53249 10261 ft 280 kts 38°
2026-05-05 04:22 10.96531 106.54446 10965 ft 283 kts 40°
2026-05-05 04:22 10.98056 106.55733 11646 ft 288 kts 42°
2026-05-05 04:22 10.99548 106.57054 12374 ft 290 kts 43°
2026-05-05 04:23 11.01062 106.58418 13073 ft 293 kts 43°
2026-05-05 04:23 11.02585 106.59801 13788 ft 296 kts 43°
2026-05-05 04:23 11.04116 106.61194 14490 ft 300 kts 43°
2026-05-05 04:23 11.05666 106.62608 15183 ft 304 kts 43°
2026-05-05 04:24 11.07241 106.64045 15889 ft 307 kts 43°
2026-05-05 04:24 11.08837 106.65500 16568 ft 310 kts 43°
2026-05-05 04:24 11.10438 106.66962 17221 ft 314 kts 43°
2026-05-05 04:25 11.13705 106.69944 18505 ft 320 kts 43°
2026-05-05 04:25 11.15358 106.71455 19002 ft 328 kts 43°
2026-05-05 04:25 11.17095 106.73069 19064 ft 349 kts 44°
2026-05-05 04:25 11.18913 106.74832 19120 ft 370 kts 43°
2026-05-05 04:26 11.20870 106.76623 19169 ft 389 kts 42°
2026-05-05 04:26 11.22937 106.78496 19311 ft 404 kts 42°
2026-05-05 04:26 11.25024 106.80394 19797 ft 409 kts 43°
2026-05-05 04:26 11.27144 106.82332 20264 ft 413 kts 43°
2026-05-05 04:27 11.29297 106.84306 20830 ft 416 kts 43°
2026-05-05 04:27 11.31430 106.86265 21322 ft 419 kts 43°
2026-05-05 04:27 11.33611 106.88271 21810 ft 422 kts 43°
2026-05-05 04:27 11.35767 106.90256 22294 ft 425 kts 43°
2026-05-05 04:28 11.37962 106.92279 22762 ft 428 kts 42°
2026-05-05 04:28 11.40199 106.94344 23225 ft 431 kts 42°
2026-05-05 04:28 11.42423 106.96394 23680 ft 434 kts 42°
2026-05-05 04:28 11.44658 106.98456 24131 ft 437 kts 42°
2026-05-05 04:29 11.46885 107.00511 24569 ft 440 kts 42°
2026-05-05 04:29 11.49148 107.02600 25020 ft 442 kts 42°
2026-05-05 04:29 11.51438 107.04715 25446 ft 445 kts 42°
2026-05-05 04:29 11.53735 107.06840 25880 ft 447 kts 42°
2026-05-05 04:30 11.56024 107.08956 26272 ft 450 kts 42°
2026-05-05 04:30 11.58358 107.11114 26680 ft 452 kts 42°
2026-05-05 04:30 11.60693 107.13272 27061 ft 455 kts 42°
2026-05-05 04:30 11.63017 107.15425 27453 ft 457 kts 42°
2026-05-05 04:31 11.65387 107.17617 27810 ft 460 kts 42°
2026-05-05 04:31 11.67733 107.19788 28176 ft 462 kts 42°
2026-05-05 04:31 11.70105 107.21983 28518 ft 464 kts 42°
2026-05-05 04:31 11.72494 107.24194 28865 ft 467 kts 42°
2026-05-05 04:32 11.74917 107.26438 29203 ft 469 kts 42°
2026-05-05 04:32 11.77330 107.28674 29534 ft 471 kts 42°
2026-05-05 04:32 11.79753 107.30921 29855 ft 474 kts 42°
2026-05-05 04:32 11.82172 107.33167 30145 ft 476 kts 42°
2026-05-05 04:33 11.84615 107.35443 30538 ft 476 kts 42°
2026-05-05 04:33 11.87048 107.37715 30944 ft 476 kts 42°
2026-05-05 04:33 11.89482 107.39996 31351 ft 475 kts 42°
2026-05-05 04:33 11.91896 107.42259 31749 ft 475 kts 42°
2026-05-05 04:34 11.94321 107.44534 32153 ft 474 kts 42°
2026-05-05 04:34 11.96728 107.46787 32550 ft 473 kts 42°
2026-05-05 04:34 11.99162 107.49056 32893 ft 472 kts 41°
2026-05-05 04:35 12.04031 107.53567 32938 ft 474 kts 41°
2026-05-05 04:35 12.08877 107.58013 32938 ft 470 kts 41°
2026-05-05 04:36 12.13729 107.62464 32939 ft 470 kts 41°
2026-05-05 04:36 12.18536 107.66910 32939 ft 471 kts 41°
2026-05-05 04:37 12.23367 107.71414 32939 ft 471 kts 41°
2026-05-05 04:37 12.28209 107.75906 32938 ft 470 kts 39°
2026-05-05 04:38 12.33636 107.79533 32939 ft 468 kts 21°
2026-05-05 04:38 12.39908 107.81051 32944 ft 466 kts
2026-05-05 04:39 12.46350 107.81276 32943 ft 466 kts
2026-05-05 04:39 12.52774 107.81392 32949 ft 466 kts
2026-05-05 04:40 12.59233 107.81512 32958 ft 466 kts
2026-05-05 04:40 12.65694 107.81636 32965 ft 466 kts
2026-05-05 04:41 12.72174 107.81764 32936 ft 467 kts
2026-05-05 04:41 12.78610 107.81890 32938 ft 466 kts
2026-05-05 04:42 12.85088 107.82017 32939 ft 466 kts
2026-05-05 04:42 12.91558 107.82146 32938 ft 467 kts 360°
2026-05-05 04:43 12.97996 107.82272 32939 ft 467 kts 360°
2026-05-05 04:43 13.04483 107.82400 32939 ft 467 kts 360°
2026-05-05 04:44 13.10965 107.82528 32939 ft 467 kts 360°
2026-05-05 04:44 13.17418 107.82655 32939 ft 466 kts 360°
2026-05-05 04:45 13.23864 107.82783 32939 ft 466 kts 360°
2026-05-05 04:45 13.30337 107.82912 32939 ft 466 kts 360°
2026-05-05 04:46 13.36806 107.83043 32939 ft 466 kts 360°
2026-05-05 04:46 13.43254 107.83178 32939 ft 466 kts 360°
2026-05-05 04:47 13.49682 107.83314 32939 ft 466 kts 360°
2026-05-05 04:47 13.56170 107.83449 32939 ft 466 kts 360°
2026-05-05 04:48 13.62616 107.83582 32939 ft 466 kts 360°
2026-05-05 04:48 13.69035 107.83716 32939 ft 465 kts 360°
2026-05-05 04:49 13.75504 107.83851 32939 ft 465 kts 360°
2026-05-05 04:49 13.81923 107.83984 32941 ft 465 kts 360°
2026-05-05 04:50 13.88382 107.84119 32945 ft 465 kts 360°
2026-05-05 04:50 13.94826 107.84254 32948 ft 465 kts 360°
2026-05-05 04:51 14.01296 107.84380 32948 ft 465 kts 359°
2026-05-05 04:51 14.07727 107.84384 32948 ft 465 kts 358°
2026-05-05 04:52 14.14164 107.84373 32948 ft 465 kts 359°
2026-05-05 04:52 14.20600 107.84369 32948 ft 465 kts 358°
2026-05-05 04:53 14.27032 107.84367 32948 ft 465 kts 358°
2026-05-05 04:53 14.33484 107.84364 32948 ft 465 kts 358°
2026-05-05 04:54 14.39905 107.84364 32948 ft 465 kts 358°
2026-05-05 04:54 14.46379 107.84364 32948 ft 465 kts 358°
2026-05-05 04:55 14.52809 107.84364 32948 ft 465 kts 358°
2026-05-05 04:55 14.59245 107.84364 32948 ft 465 kts 358°
2026-05-05 04:56 14.65714 107.84364 32948 ft 465 kts 358°
2026-05-05 04:56 14.72153 107.84365 32948 ft 465 kts 358°
2026-05-05 04:57 14.78578 107.84364 32948 ft 465 kts 358°
2026-05-05 04:57 14.85015 107.84536 32948 ft 466 kts
2026-05-05 04:58 14.91366 107.85786 32953 ft 470 kts 15°
2026-05-05 04:58 14.97549 107.88010 32959 ft 471 kts 17°
2026-05-05 04:59 15.03693 107.90295 32965 ft 471 kts 18°
2026-05-05 04:59 15.09843 107.92595 32966 ft 471 kts 17°
2026-05-05 05:00 15.14997 107.94527 32505 ft 466 kts 17°
2026-05-05 05:00 15.18007 107.95657 31597 ft 467 kts 17°
2026-05-05 05:00 15.21049 107.96800 30641 ft 470 kts 17°
2026-05-05 05:00 15.24117 107.97952 29698 ft 471 kts 17°
2026-05-05 05:01 15.27172 107.99097 28780 ft 471 kts 18°
2026-05-05 05:01 15.30249 108.00253 27835 ft 470 kts 18°
2026-05-05 05:01 15.33315 108.01402 26859 ft 470 kts 18°
2026-05-05 05:01 15.36397 108.02480 25863 ft 470 kts 15°
2026-05-05 05:02 15.39490 108.03330 24845 ft 469 kts 11°
2026-05-05 05:02 15.42714 108.03810 23822 ft 467 kts
2026-05-05 05:02 15.45891 108.03831 23118 ft 458 kts 355°
2026-05-05 05:02 15.49049 108.03517 22505 ft 460 kts 352°
2026-05-05 05:03 15.52222 108.03095 21710 ft 457 kts 351°
2026-05-05 05:03 15.55325 108.02665 20960 ft 450 kts 351°
2026-05-05 05:03 15.58391 108.02233 20212 ft 443 kts 351°
2026-05-05 05:03 15.61423 108.01802 19464 ft 436 kts 351°
2026-05-05 05:04 15.64352 108.01384 18737 ft 434 kts 351°
2026-05-05 05:04 15.67343 108.00954 17992 ft 433 kts 351°
2026-05-05 05:04 15.70307 108.00515 17229 ft 426 kts 350°
2026-05-05 05:04 15.73178 107.99981 16477 ft 420 kts 348°
2026-05-05 05:05 15.75936 107.99198 16002 ft 412 kts 340°
2026-05-05 05:05 15.78638 107.98155 15996 ft 416 kts 338°
2026-05-05 05:05 15.81349 107.97041 15988 ft 421 kts 338°
2026-05-05 05:05 15.84045 107.95908 15989 ft 420 kts 337°
2026-05-05 05:06 15.86719 107.94770 15992 ft 419 kts 337°
2026-05-05 05:06 15.89409 107.93617 15993 ft 419 kts 337°
2026-05-05 05:06 15.92106 107.92456 15993 ft 419 kts 337°
2026-05-05 05:06 15.94779 107.91301 15989 ft 418 kts 337°
2026-05-05 05:07 15.97414 107.90160 15672 ft 407 kts 337°
2026-05-05 05:07 16.00071 107.89008 14877 ft 414 kts 337°
2026-05-05 05:07 16.02675 107.87875 14126 ft 407 kts 337°
2026-05-05 05:07 16.05249 107.86756 13419 ft 400 kts 337°
2026-05-05 05:08 16.07778 107.85657 12727 ft 393 kts 337°
2026-05-05 05:08 16.10238 107.84583 12046 ft 387 kts 337°
2026-05-05 05:08 16.12725 107.83488 11421 ft 379 kts 337°
2026-05-05 05:08 16.15076 107.82455 11106 ft 364 kts 337°
2026-05-05 05:09 16.17355 107.81413 10900 ft 348 kts 336°
2026-05-05 05:09 16.19494 107.80399 10770 ft 332 kts 336°
2026-05-05 05:09 16.21569 107.79414 10607 ft 319 kts 336°
2026-05-05 05:09 16.23532 107.78487 10455 ft 308 kts 336°
2026-05-05 05:10 16.25441 107.77589 10306 ft 297 kts 336°
2026-05-05 05:10 16.27305 107.76758 10150 ft 287 kts 343°
2026-05-05 05:10 16.29246 107.76433 9849 ft 283 kts
2026-05-05 05:10 16.31223 107.76523 9471 ft 283 kts
2026-05-05 05:11 16.33170 107.76661 9113 ft 282 kts
2026-05-05 05:11 16.35120 107.76790 8753 ft 282 kts
2026-05-05 05:11 16.37065 107.76912 8385 ft 281 kts
2026-05-05 05:11 16.39011 107.77029 8036 ft 280 kts
2026-05-05 05:12 16.40937 107.77143 7690 ft 279 kts
2026-05-05 05:12 16.42861 107.77258 7342 ft 278 kts
2026-05-05 05:12 16.44792 107.77371 6993 ft 277 kts
2026-05-05 05:12 16.46689 107.77483 6648 ft 275 kts
2026-05-05 05:13 16.48544 107.77896 6298 ft 273 kts 24°
2026-05-05 05:13 16.50050 107.79039 5995 ft 268 kts 51°
2026-05-05 05:13 16.50939 107.80696 5769 ft 262 kts 72°
2026-05-05 05:13 16.51182 107.82565 5412 ft 261 kts 91°
2026-05-05 05:14 16.51083 107.84425 5231 ft 254 kts 94°
2026-05-05 05:14 16.50961 107.86240 4989 ft 251 kts 95°
2026-05-05 05:14 16.50511 107.87998 4485 ft 258 kts 121°
2026-05-05 05:14 16.49216 107.89278 4024 ft 262 kts 153°
2026-05-05 05:15 16.47473 107.89698 3652 ft 260 kts 179°
2026-05-05 05:15 16.45683 107.89612 3334 ft 253 kts 183°
2026-05-05 05:15 16.43986 107.89497 3105 ft 241 kts 182°
2026-05-05 05:15 16.42337 107.89393 2841 ft 231 kts 182°
2026-05-05 05:16 16.40784 107.89083 2612 ft 227 kts 204°
2026-05-05 05:16 16.39644 107.88057 2472 ft 210 kts 238°
2026-05-05 05:16 16.39220 107.86704 2450 ft 192 kts 267°
2026-05-05 05:16 16.39234 107.85332 2474 ft 188 kts 274°
2026-05-05 05:17 16.39326 107.83993 2395 ft 183 kts 274°
2026-05-05 05:17 16.39399 107.82687 2137 ft 176 kts 273°
2026-05-05 05:17 16.39466 107.81448 1918 ft 170 kts 273°
2026-05-05 05:17 16.39532 107.80232 1712 ft 164 kts 273°
2026-05-05 05:18 16.39594 107.79074 1466 ft 155 kts 276°
2026-05-05 05:18 16.39653 107.77987 1272 ft 144 kts 275°
2026-05-05 05:18 16.39709 107.76959 1084 ft 143 kts 275°
2026-05-05 05:18 16.39764 107.75934 887 ft 142 kts 274°
2026-05-05 05:19 16.39821 107.74916 719 ft 140 kts 274°
2026-05-05 05:19 16.39877 107.73888 510 ft 141 kts 274°
2026-05-05 05:19 16.39922 107.72877 325 ft 139 kts 274°
2026-05-05 05:19 16.39981 107.71860 143 ft 140 kts 274°
2026-05-05 05:20 16.40034 107.70919 54 ft 109 kts 272°
2026-05-05 05:20 16.40063 107.70341 54 ft 54 kts 273°
2026-05-05 05:20 16.40081 107.70023 54 ft 35 kts 274°
2026-05-05 05:20 16.40089 107.69849 54 ft 16 kts 262°
2026-05-05 05:21 16.40011 107.69832 54 ft 12 kts 153°
2026-05-05 05:21 16.39943 107.69881 54 ft 11 kts 135°
2026-05-05 05:21 16.39919 107.69961 54 ft 13 kts 93°
2026-05-05 05:21 16.39915 107.70051 54 ft 11 kts 93°
2026-05-05 05:22 16.39911 107.70135 54 ft 12 kts 93°
2026-05-05 05:22 16.39904 107.70222 54 ft 10 kts 108°
2026-05-05 05:22 16.39849 107.70242 54 ft 6 kts 154°
2026-05-05 05:22 16.39830 107.70303 54 ft 10 kts 92°
2026-05-05 05:23 16.39826 107.70367 54 ft 4 kts 105°
2026-05-05 05:23 16.39792 107.70383 54 ft 7 kts 179°
2026-05-05 05:23 16.39739 107.70382 54 ft 4 kts 183°
2026-05-05 05:23 16.39735 107.70381 54 ft 0 kts 183°